Regional Weather Roundup
Issued by NWS Wakefield, VA

Home | Current Version | Previous Version | Graphics & Text | Print | Product List | Glossary On
Versions: 1 2 3 4 5 6 7 8 9 10 11 12 13 14 15 16 17 18 19 20 21 22 23 24 25 26 27 28 29 30 31 32 33 34 35 36 37 38 39 40 41 42 43 44 45 46 47 48 49 50
000
ASUS41 KAKQ 261915
RWRAKQ

REGIONAL WEATHER ROUNDUP
NATIONAL WEATHER SERVICE WAKEFIELD VA
300 PM EDT MON SEP 26 2016

Note: "fair" indicates few or no clouds below 12,000 feet with no
significant weather and/or obstructions to visibility. * = Denotes
station may not report precipitation (e.g., rain,snow,etc.),
thunder or fog.

VAZ042-051-052>054-056-262000-
NORTHERN VIRGINIA

CITY           SKY/WX    TMP DP  RH WIND       PRES   REMARKS
WASH NATIONAL  CLOUDY    70  61  73 S13       30.07F
DULLES         CLOUDY    66  58  75 S10G22    30.06F
FORT BELVOIR   CLOUDY    69  60  72 SE8       30.06F
QUANTICO       CLOUDY    70  61  73 S18       30.07F
FREDERICKSBRG* CLOUDY    70  61  75 S10       30.06F
STAFFORD*      CLOUDY    69  61  75 SE6       30.10F
WARRENTON      CLOUDY    69  56  63 S9        30.05F
CULPEPER*      CLOUDY    70  62  75 S8        30.06F
MANASSAS*      CLOUDY    68  61  77 S10       30.06F
LEESBURG*      CLOUDY    68  63  83 S17G24    30.06F
WINCHESTER     PTSUNNY   73  61  64 SE14G22   30.00F
FRONT ROYAL*   MOCLDY    77  64  65 S7        29.99F
LURAY*         FAIR      75  64  69 S9G20     29.99F
$$

VAZ048-049-060>072-079>083-262000-
CENTRAL AND SOUTH CENTRAL VIRGINIA

CITY           SKY/WX    TMP DP  RH WIND       PRES   REMARKS
RICHMOND       CLOUDY    71  60  68 S7        30.07F
CHESTERFIELD*  CLOUDY    72  52  49 S8        30.09F
PETERSBURG*    CLOUDY    73  61  65 S3        30.08F
HANOVER        CLOUDY    69  58  67 VRB3      30.09F
TAPPAHANNOCK*  CLOUDY    71  58  62 E5        30.10F
QUINTON*       CLOUDY    71  60  67 SE5       30.09F
CHARLOTTSVILLE CLOUDY    69  61  75 S8        30.05F
GORDONSVILLE*  CLOUDY    68  63  83 S6        30.05F
ORANGE*          N/A     68  63  83 SE6       30.08F
LOUISA*        CLOUDY    72  64  78 SE3       30.06F
BUMPASS*       CLOUDY    68  61  78 CALM      30.07F
FARMVILLE*     CLOUDY    72  62  72 S8        30.06F
CREWE*         CLOUDY    70  60  71 SE6       30.07F
FORT PICKETT*  CLOUDY    71  62  73 S5        30.08F
CHASE CITY*    CLOUDY    71  60  69 SE8       30.07F
CLARKSVILLE*   CLOUDY    70  63  78 S3        30.07F
SOUTH HILL*    CLOUDY    71  63  78 S3        30.14F
LAWRENCEVILLE* CLOUDY    72  63  73 CALM      30.08F
EMPORIA*       CLOUDY   N/A N/A N/A SE6       30.10S
$$

VAZ088>098-262000-
SOUTHEAST VIRGINIA

CITY           SKY/WX    TMP DP  RH WIND       PRES   REMARKS
NORFOLK        CLOUDY    74  57  55 SE8       30.09F
VIRGINIA BEACH PTSUNNY   74  58  57 SE6       30.08F
NORFOLK NAVAL  CLOUDY    74  56  53 S6        30.10F
WEST POINT*    CLOUDY    72  57  58 SE5       30.11F
SALUDA*        CLOUDY    71  58  64 SE5       30.09F
NEWPORT NEWS   CLOUDY    73  56  54 SW7       30.09F
LANGLEY AFB    CLOUDY    74  57  54 SE5       30.09F
FORT EUSTIS    PTSUNNY   75  58  55 VRB6      30.07F
WILLIAMSBURG*  SUNNY     75  61  60 S6        30.10F
HR EXEC AP*    CLOUDY    75  57  53 CALM      30.11F
FRANKLIN*      PTSUNNY   75  60  60 S5        30.09F
US460-WAKEFLD  PTSUNNY   74  58  57 VRB6      30.08F
$$

VAZ020-022-025-037-045-262000-
WEST CENTRAL AND SOUTHWEST VIRGINIA

CITY           SKY/WX    TMP DP  RH WIND       PRES   REMARKS
STAUNTON*      CLOUDY    70  63  78 S7        30.04F
WAYNESBORO*    CLOUDY    67  62  82 SE5       30.05F
HOT SPRINGS VA RAIN      52  52 100 S7        30.10F VSB<1/4
LYNCHBURG      CLOUDY    68  61  78 S9        30.07F
DANVILLE       CLOUDY    71  62  73 VRB7G18   30.06F
SOUTH BOSTON*  CLOUDY    72  60  67 S5        30.06F
MARTINSVILLE   CLOUDY    69  67  93 CALM      30.08F FOG
ROANOKE        CLOUDY    68  65  90 SE8       30.07F
BLACKSBURG     LGT RAIN  69  66  90 N5        30.08F
DUBLIN*        PTSUNNY   76  67  72 S13       30.05F
MARION*        PTSUNNY   79  64  61 W15       30.09F
HILLSVILLE*    LGT RAIN  66  66 100 S7        30.09F
RICHLANDS*     FAIR      79  66  64 W13G20    30.07F
WISE*          CLOUDY    75  57  53 W13G18    30.10F
ABINGDON*      CLOUDY    78  66  66 W8        30.05F
$$

MDZ021>025-VAZ099-100-262000-
SOUTHERN MARYLAND AND THE DELMARVA PENINSULA

CITY           SKY/WX    TMP DP  RH WIND       PRES   REMARKS
PATUXENT RIVER CLOUDY    70  56  61 S6        30.09F
BAY BRIDGE APT CLOUDY    70  55  60 MISG      30.08F
LEONARDTOWN    CLOUDY    68  55  64 CALM      30.11F
DOVER          PTSUNNY   73  59  62 SE15      30.07F
GEORGETOWN     CLOUDY    74  51  44 S9        30.10F
EASTON         CLOUDY    72  54  53 S7        30.12F
CAMBRIDGE      CLOUDY    70  54  56 S5        30.09F
SALISBURY      PTSUNNY   74  54  49 S9        30.10F
OCEAN CITY     SUNNY     74  57  55 S7        30.11F
WALLOPS ISLAND CLOUDY    74  58  57 S13       30.11F
ACCOMACK*      CLOUDY    72  52  49 S8        30.09F
$$

NCZ012>017-030>032-262000-
NORTH CENTRAL AND EASTERN NORTH CAROLINA

CITY           SKY/WX    TMP DP  RH WIND       PRES   REMARKS
ROANOKE RAPIDS CLOUDY    73  61  64 SE5       30.08F
RALEIGH        PTSUNNY   73  63  70 SE7       30.08F
ELIZABETH CITY CLOUDY    76  63  64 E9        30.09F
AHOSKIE*       MOSUNNY   74  63  67 SE5       30.09F
EDENTON*       NOT AVBL
CURRITUCK*     CLOUDY    76  62  60 E5        30.10F
KILL DEVIL HLS SUNNY     81  68  64 E6        30.08F
MANTEO         SUNNY     76  64  66 SE7       30.10S
CAPE HATTERAS  MOSUNNY   81  65  58 SE5       30.08F
TARBORO*       CLOUDY    77  62  59 SE5       30.10S
GOLDSBORO      SUNNY     81  65  58 VRB2      30.05F
WASHINGTON     MOSUNNY   77  62  59 SE5       30.08F
GREENVILLE     CLOUDY    77  61  57 S3        30.09F
NEW BERN       CLOUDY    79  65  62 VRB6      30.09F
WILMINGTON     SUNNY     81  66  60 E8        30.06F
$$

VAZ048-262000-
ELSEWHERE

CITY           SKY/WX    TMP DP  RH WIND       PRES   REMARKS
HARRISBURG PA  LGT RAIN  63  63 100 SE10      30.05F FOG
BALTIMORE      CLOUDY    65  60  84 S6        30.07F
ANNAPOLIS      CLOUDY    70  57  63 S9G20     30.08F
ANDREWS AFB    CLOUDY    67  59  74 S10       30.06F
PHILADELPHIA   CLOUDY    72  48  42 S12       30.09F
HENDERSON NC   CLOUDY    69  59  69 S5        30.09F
GREENSBORO     CLOUDY    78  69  73 S13       30.04F
ROCKY MOUNT    PTSUNNY   77  63  61 VRB3      30.08F
$$

VAZ100-262000-
MARINE

STATION/POSITION TIME  TEMP    WIND        PRES    WAVE   SWELL
                       AIR SEA DIR/SP/G            HT/PER HT/PER
                 (UTC) (F)     (DEG/KT/KT) (MB)    (FT/S) (FT/S)
BRANDYWINE LGT   1800   69     170/ 16/ 18   N/A
CAPE MAY NJ      1800   69 73  160/ 12/ 15 1019.6F
LEWES DE         1800   71 72  160/ 13/ 18 1019.6F
OCEAN-CITY-INLET 1800   71 72  160/  9/ 14 1020.3F
WACHAPREAGUE VA  1800   72 74  150/  7/  9 1019.7F
THOMAS POINT MD  1900   70 74  170/ 19/ 21 1019.6F
GOOSES REEF MD   1900   71 75  210/ 12/ 16 1019.3F   2/ 3
COVE POINT MD    1800   69     190/ 12/ 16 1020.0F
SOLOMONS ISLAND  1800   70 76  150/  6/ 10   N/A
BISHOPS HEAD MD  1800   71 72  160/ 11/ 13 1019.7F
PINEY POINT MD   1800          180/  9/ 11   N/A
POTOMAC MD       1900   71 75  190/ 10/ 12 1018.2F   1/ 3
CAMBRIDGE MD     1800   71 74  190/  6/ 10 1018.8F
LEWISETTA VA     1800   71 74  170/  7/  8 1019.1F
RAPPAHANNOCK LGT 1800          140/ 12/ 13 1020.0F
STINGRAY PT      1900   72 76  120/ 10/ 12 1019.6F   1/ 3
YORK RVR RNG VA  1800   72     150/ 11/ 13 1018.7F
YORKTOWN VA      1800   73 77  120/  7/  9 1018.9F
JAMESTOWN VA     1900   72 77  130/  6/ 10   N/A     0
DOMINION TERM VA 1800   73     160/  5/  7 1019.3F
KIPTOPEKE VA     1800      77  160/  8/ 13   N/A
CHES BAY BRIDGE  1800   73 76  120/  5/  8 1019.1F
CAPE HENRY VA    1800   72     130/  8/ 12   N/A
WILLOUBY STN VA  1800   74     150/  9/ 10   N/A
CAPE HENRY BUOY  1812      76                N/A     3/10
1ST LANDING BUOY 1900   73 76  160/ 12/ 14 1018.9F   2/ 4
CAPE CHARLES BUO 1826      76                N/A     3/ 9
OFFSHORE WE BUOY 1821      76                N/A     3/ 8
64NM E OF VA BCH 1850   74 76  120/ 12/ 16 1018.9F   3/ 8   2/ 8
DUCK PIER NC     1800   75 76  100/ 12/ 14 1018.7F
44056 DUCK FRF   1811      77                N/A     3/ 8
OREGON INLET NC  1800   75 76   40/  9/ 10 1019.0F
HATTERAS NC      1800   74 76   10/ 10/ 12 1018.8F
DIAMOND SHLS NC  1850   78 79  140/  8/ 12 1018.5F   3/ 8   3/ 8
CAPE LOOKOUT NC  1900   76      70/ 10/ 11 1018.0F
$$



USA.gov is the U.S. government's official web portal to all federal, state and local government web resources and services.